Weather in Podvyaznovskiy

Russia / Ivanovo Oblast     56°58′10″N   41°07′18″E
temp.,
°C
wind,
m/s
gust,
m/s
humid.,
%
clouds,
%
prec.,
mm/h
press.,
hPa
HPBL,
m
10 may, mon
mon1000:00+5nnw31087100 0.0 1018508
03:00+3nnw41282100 0.0 1021368
06:00+3nnw4138130 0.0 1023534
09:00+8n61061100 0.0 1025949
12:00+12n57495 0.0 10261355
15:00+13nne45445 0.0 10261474
18:00+12n35542 0.0 1027698
21:00+7n37725 0.0 102893
11 may, tue
tue1100:00+5ne34755 0.0 102950
03:00+4ne23875 0.0 103049
06:00+6ne37825 0.0 1030179
09:00+12ene46593 0.0 1030644
12:00+16ene45450 0.0 1029891
15:00+18ene45440 0.0 1029919
18:00+17e36583 0.0 1029486
21:00+11ene34730 0.0 102954
12 may, wed
wed1200:00+10ene35810 0.0 103068
03:00+9ene35922 0.0 102982
06:00+11ene38875 0.0 1029179
09:00+18ene586951 0.0 1028507
12:00+21e695834 0.0 10271119
15:00+23e6115361 0.0 10252512
18:00+20se496799 0.6 1024477
21:00+15se41273100 1.3 1025385
13 may, thu
thu1300:00+14ese2380100 0.0 102571
03:00+14ese2688100 0.0 1025140
06:00+14e3108571 0.0 1024312
09:00+17ese4107541 0.0 1023537
12:00+22se694712 0.0 10221546
15:00+23se61151100 0.0 10211934
18:00+17sse51187100 2.2 1020553
21:00+15sse31196100 6.1 1021484
14 may, fri
fri1400:00+13se259712 0.3 1021110
03:00+12sse229742 0.3 102133
06:00+14se2395100 0.0 1021104
09:00+18se3483100 0.0 1020473
12:00+22sse466241 0.1 10191404
15:00+23s456254 1.4 10181283
18:00+22se246986 0.5 1017178
21:00+17sse31186100 0.6 1016228